Location: G�ppingen
(48.7089°N, 9.6563°E)
Time: 20:17:11
(UTC+02:00)

M-CUBED/EXP-1 PRIME - Pass Details

Date: 24 March 2019
Orbit: 430 x 671 km, 101.7° (Epoch: 20 April)

Event Time Altitude Azimuth Distance (km) Brightness Sun altitude
Rises 20:25:17 0° 22° (NNE) 2,947 ? -17.7°
Reaches altitude 10° 20:27:29 10° 25° (NNE) 2,059 ? -18.0°
Maximum altitude 20:31:58 63° 107° (ESE) 742 ? -18.7°
Drops below altitude 10° 20:36:32 10° 189° (S) 2,096 ? -19.4°
Sets 20:38:47 0° 193° (SSW) 3,005 ? -19.7°
